ITUPSAT1

Last updated on Tue Jul 01 2025 00:03:06 GMT+0000 (Coordinated Universal Time)

1 35935U 09051E 25181.25655187 .00000511 00000+0 11763-3 0 9993 2 35935 98.4309 77.7185 0006291 247.3518 112.7016 14.59579298837389
UTC large
Height (km)
Speed (km/s)
/
Latitude / Longitude
Inclination (degrees)
Orbital Period (minutes)
Azimuth
Elevation
Range (km)
Doppler Factor

Next 0 passes for location: London (51.5072 / 0.1276)

Sorry there are no passes over London.